Lexington Weather

Lexington, Massachusetts, USA

26°F
12/12/2019 5:31pm 
  • Lexington Conditions: Partly cloudy
  • Temperature: 25.5°F / -3.6°CColder 1.8°F than last hour.
  • Dew Point: 19.9°FIncreased 0.1°Fsince last hour.
  • Relative Humidity: 79%Increased 6.0% since last hour.
  • Wind: Wind from WSW WSW Calm, 10-min avg: 1 mph, gust: 2 mph
  • Barometer: 30.67 in Steady
  • Visibility: 10 miles
  • Snow Today: 0.0 in
  •   

Regional Weather Roundup
for Boston / Norton, MA

        
000
ASUS41 KBOX 122110
RWRBOX

REGIONAL WEATHER ROUNDUP
NATIONAL WEATHER SERVICE BOSTON/NORTON MA
400 PM EST THU DEC 12 2019

NOTE:  "FAIR" INDICATES FEW OR NO CLOUDS BELOW 12,000 FEET WITH NO 
SIGNIFICANT WEATHER AND/OR OBSTRUCTIONS TO VISIBILITY.

MAZALL-122200-
EASTERN MASSACHUSETTS
  
CITY           SKY/WX    TMP DP  RH WIND       PRES   REMARKS
BOSTON         FAIR      32  12  43 W8        30.70R WCI  25          
BEVERLY        FAIR      28  12  51 W6        30.69R WCI  22          
LAWRENCE       FLURRIES  28  12  51 SW5       30.70R WCI  23          
BEDFORD        FAIR      29  12  49 SW3       30.68R                  
BLUE HILL        N/A     26  14  60 W3        30.64R                  
NORWOOD        FAIR      32  13  45 W3        30.69R                  
MARSHFIELD     FAIR      30  16  55 CALM      30.69S                  
PLYMOUTH       FAIR      27  16  63 CALM      30.69R                  
TAUNTON        FAIR      28  20  71 CALM      30.70R                  
NEW BEDFORD    FAIR      30  16  56 CALM      30.69R                  
$$

MAZALL-122200-
CAPE COD AND THE ISLANDS
  
CITY           SKY/WX    TMP DP  RH WIND       PRES   REMARKS
FALMOUTH       CLEAR     28  16  59 N5        30.69R WCI  23          
HYANNIS        FAIR      31  16  54 NW3       30.68R                  
CHATHAM        FAIR      30  18  60 CALM      30.70R                  
PROVINCETOWN   FAIR      29  17  61 NW8       30.70R WCI  21          
NANTUCKET      FAIR      32  19  58 N8        30.69R WCI  25          
MARTHAS VNYRD  FAIR      29  16  58 N3        30.70R                  
$$
 
MAZALL-122200-
CENTRAL AND WESTERN MASSACHUSETTS
  
CITY           SKY/WX    TMP DP  RH WIND       PRES   REMARKS
WORCESTER      FAIR      24  12  60 W3        30.62S                  
FITCHBURG      FAIR      27  11  51 CALM      30.66S                  
ORANGE         FAIR      28  13  53 SW6       30.66R WCI  22          
SPRINGFIELD    PTCLDY    29  14  54 CALM      30.65S                  
WESTFIELD      FAIR      30  13  49 CALM      30.66S                  
NORTH ADAMS    FAIR      27  10  49 W3        30.63S                  
PITTSFIELD     FAIR      25  10  53 S3        30.58F                  
$$
 
RIZALL-122200-
RHODE ISLAND
  
CITY           SKY/WX    TMP DP  RH WIND       PRES   REMARKS
PROVIDENCE     MOCLDY    31  14  49 NW3       30.70R                  
NEWPORT        FAIR      30  15  53 N3        30.68S                  
BLOCK ISLAND   FAIR      27  16  63 CALM      30.70S                  
SMITHFIELD     FAIR      27  15  61 NW3       30.67R                  
WESTERLY       FAIR      33  14  45 CALM      30.70S                  
$$
 
CTZALL-122200-
CONNECTICUT
  
CITY           SKY/WX    TMP DP  RH WIND       PRES   REMARKS
BRADLEY INTL   MOCLDY    30  14  51 CALM      30.67S                  
HARTFORD       FAIR      31  15  52 CALM      30.69S                  
BRIDGEPORT     FAIR      33  16  49 SE3       30.69S                  
DANBURY        FAIR      29  14  53 SE3       30.67R                  
GROTON         FAIR      32  14  47 CALM      30.69S                  
NEW HAVEN      FAIR      33  17  51 CALM      30.69S                  
CHESTER        FAIR      30  14  51 CALM      30.67S                  
MERIDEN        FAIR      31  14  49 CALM      30.68S                  
WILLIMANTIC    FAIR      29  14  53 CALM      30.69S                  
OXFORD         FAIR      31  16  54 CALM      30.65S                  
$$

MEZ002-015-021-024-NHZ003-005-008-011-012-014-VTZ005-008-122200-
NORTHERN NEW ENGLAND
  
CITY           SKY/WX    TMP DP  RH WIND       PRES   REMARKS
PORTLAND ME    FAIR      31   5  33 W8        30.66R WCI  23          
BANGOR ME      FAIR      25  -2  31 W3        30.63R                  
CONCORD NH     FAIR      28   5  37 W3        30.64S                  
MANCHESTER NH  FAIR      30   9  41 SW5       30.64R WCI  25          
NASHUA NH      FAIR      27  12  53 CALM      30.67S                  
PORTSMOUTH NH  PTCLDY    28   5  36 W3        30.66R                  
JAFFREY NH     FAIR      24  10  55 S3        30.61R                  
KEENE NH       FAIR      26  12  55 S5        30.65R WCI  20          
BURLINGTON VT  MOCLDY    27   8  44 S3        30.61F                  
MT. WASHINGTON FOG       -4  -4 100 W37         N/A  VSB 1/16WCI -33  
$$

NYZ052-076-122200-
EASTERN NEW YORK
  
CITY           SKY/WX    TMP DP  RH WIND       PRES   REMARKS
ALBANY         CLOUDY    30  12  47 S5        30.66F WCI  25          
NEW YORK CITY  MOCLDY    36   8  31 E8        30.69S WCI  30          
$$
 
ANZALL-122200-
MARINE OBSERVATIONS
  
STATION/POSITION TIME  TEMP    WIND        PRES    VSBY  WAVE
                       AIR SEA DIR/SP/G                  HT/PER
                 (UTC) (F)     (DEG/KT/KT) (MB)    (MI)  (FT/S)
BOSTON BUOY      2050   31 47  290/  8/ 12 1038.9R         1/10
BUZZARDS BAY     2000   31     340/  5/  6 1039.8R
NANTUCKET SOUND  2050   31 42                N/A           1
MASS BAY-STELLWA 2004   30 46  300/ 10/ 14 1037.4R  1 7/8  1/ 3
ISLE OF SHOALS   2000   30     270/ 10/ 13 1037.9R
S OF BLOCK IS    2100      51                N/A           2/ 9
$$

......................KEY.........................
  SKY/WX - SKY CONDITION/PRESENT WEATHER
  TMP    - TEMPERATURE IN FAHRENHEIT
  DWPT   - DEWPOINT IN FAHRENHEIT
  RH     - RELATIVE HUMIDITY IN PERCENT
  WIND   - DIRECTION AND SPEED IN MPH
  PRES   - MEAN SEA LEVEL PRESSURE IN INCHES OF HG
  WCI    - WIND CHILL INDEX
  VSB    - VISIBILITY IN MILES
  HX     - HEAT INDEX
  TC     - TEMPERATURE IN CELSIUS
  VRB    - VARIABLE WIND DIRECTION
  N/A    - NOT AVAILABLE
  
      

Other recent Regional Weather Roundups

Thu Dec 12, 5:10pm

Thu Dec 12, 5:00pm

Thu Dec 12, 4:01pm

Thu Dec 12, 3:10pm

Thu Dec 12, 3:00pm

Thu Dec 12, 2:10pm

Thu Dec 12, 2:01pm

Thu Dec 12, 1:10pm

Thu Dec 12, 1:00pm

Thu Dec 12, 12:10pm

Thu Dec 12, 12:00pm

Thu Dec 12, 11:10am

Thu Dec 12, 11:00am

Thu Dec 12, 10:10am

Thu Dec 12, 8:10am

Thu Dec 12, 8:00am

Thu Dec 12, 7:10am

Thu Dec 12, 7:00am

Thu Dec 12, 6:10am

Thu Dec 12, 6:00am

Thu Dec 12, 5:10am

Thu Dec 12, 5:00am

Thu Dec 12, 4:10am

Thu Dec 12, 4:00am

Thu Dec 12, 3:10am

Thu Dec 12, 3:00am

Thu Dec 12, 2:10am

Thu Dec 12, 2:00am

Thu Dec 12, 1:10am

Thu Dec 12, 1:00am

Thu Dec 12, 12:10am

Thu Dec 12, 12:00am

Wed Dec 11, 11:10pm

Wed Dec 11, 11:00pm

Wed Dec 11, 10:10pm

Wed Dec 11, 10:00pm

Wed Dec 11, 9:10pm

Wed Dec 11, 9:00pm

Wed Dec 11, 8:10pm

Wed Dec 11, 8:00pm

Wed Dec 11, 7:10pm

Wed Dec 11, 7:00pm

Wed Dec 11, 6:10pm

Wed Dec 11, 6:00pm

Wed Dec 11, 5:10pm

Wed Dec 11, 5:01pm

Wed Dec 11, 4:10pm

Wed Dec 11, 4:00pm

Wed Dec 11, 3:10pm

Wed Dec 11, 3:01pm

Wed Dec 11, 2:10pm

Wed Dec 11, 2:00pm

Wed Dec 11, 1:10pm

Wed Dec 11, 1:00pm

Wed Dec 11, 12:10pm

Wed Dec 11, 12:00pm

Wed Dec 11, 11:10am

Wed Dec 11, 11:00am

Wed Dec 11, 10:10am

Wed Dec 11, 10:00am

Wed Dec 11, 9:10am

Wed Dec 11, 9:00am

Wed Dec 11, 8:10am

Wed Dec 11, 8:00am

Wed Dec 11, 7:10am

Wed Dec 11, 7:00am

Wed Dec 11, 6:10am

Wed Dec 11, 6:00am

Wed Dec 11, 5:10am

Wed Dec 11, 5:00am

Wed Dec 11, 4:10am

Wed Dec 11, 4:00am

Wed Dec 11, 3:10am

Wed Dec 11, 3:01am

Wed Dec 11, 2:10am

Wed Dec 11, 2:01am

Wed Dec 11, 1:10am

Wed Dec 11, 1:00am

Wed Dec 11, 12:10am

Wed Dec 11, 12:00am

Tue Dec 10, 11:10pm

Tue Dec 10, 11:00pm

Tue Dec 10, 10:10pm

Tue Dec 10, 10:00pm

Tue Dec 10, 9:10pm

Tue Dec 10, 9:01pm

Tue Dec 10, 8:10pm

Tue Dec 10, 8:00pm

Tue Dec 10, 7:10pm

Tue Dec 10, 7:01pm

Tue Dec 10, 6:10pm

Tue Dec 10, 6:01pm

Tue Dec 10, 5:10pm

Tue Dec 10, 5:00pm

Tue Dec 10, 4:10pm

Tue Dec 10, 4:01pm

Tue Dec 10, 3:10pm

Tue Dec 10, 3:01pm

Tue Dec 10, 2:10pm

Tue Dec 10, 2:01pm

Tue Dec 10, 1:10pm

Tue Dec 10, 1:00pm

Tue Dec 10, 12:10pm

Tue Dec 10, 12:00pm

Tue Dec 10, 11:10am

Tue Dec 10, 11:00am

Tue Dec 10, 10:10am

Tue Dec 10, 10:00am

Tue Dec 10, 9:10am

Tue Dec 10, 9:01am

Tue Dec 10, 8:10am

Tue Dec 10, 8:00am

Tue Dec 10, 7:10am

Tue Dec 10, 7:00am

Tue Dec 10, 6:10am

Tue Dec 10, 6:00am

Tue Dec 10, 5:10am

Tue Dec 10, 5:00am

Tue Dec 10, 4:10am

Tue Dec 10, 4:00am

Tue Dec 10, 3:10am

Tue Dec 10, 3:00am

Tue Dec 10, 2:10am

Tue Dec 10, 2:01am

Tue Dec 10, 1:10am

Tue Dec 10, 1:00am

Tue Dec 10, 12:10am

Tue Dec 10, 12:01am

Mon Dec 9, 11:10pm

Mon Dec 9, 11:01pm

Mon Dec 9, 10:10pm

Mon Dec 9, 10:00pm

Mon Dec 9, 9:10pm

Mon Dec 9, 9:01pm

Mon Dec 9, 8:10pm

Mon Dec 9, 8:01pm

Mon Dec 9, 7:10pm

Mon Dec 9, 7:00pm

Mon Dec 9, 6:10pm

Mon Dec 9, 6:00pm

Meta data:

ID: 7a8e59db-2681-4f47-9ac4-9bfc0fd7fd9c
Link: https://api.weather.gov/products/7a8e59db-2681-4f47-9ac4-9bfc0fd7fd9c